QPF
0.18 0.19 0.21 0.20 0.19 0.18 0.22 0.24 0.25 0.24 0.21 0.24 0.29 0.31 0.28 0.23 0.19 0.18 0.16 0.15 0.14 0.13 0.11 0.11 0.10 0.10 0.11 0.11 0.11 0.10 0.10 0.11 0.10 0.08 0.06 0.06 0.06 0.06 0.05 0.03 0.02 0.01 0.01
0.16 0.16 0.16 0.14 0.13 0.14 0.17 0.19 0.20 0.21 0.22 0.21 0.21 0.24 0.26 0.24 0.21 0.18 0.16 0.14 0.12 0.10 0.10 0.10 0.09 0.10 0.10 0.11 0.12 0.12 0.12 0.11 0.10 0.09 0.07 0.07 0.06 0.05 0.04 0.03 0.02 0.01 0.01
0.08 0.08 0.08 0.08 0.09 0.10 0.10 0.11 0.13 0.14 0.16 0.20 0.22 0.22 0.21 0.19 0.19 0.18 0.17 0.16 0.14 0.12 0.11 0.11 0.10 0.10 0.10 0.11 0.11 0.12 0.12 0.11 0.10 0.08 0.07 0.06 0.06 0.05 0.04 0.03 0.02 0.02 0.01
0.02 0.02 0.02 0.03 0.03 0.04 0.03 0.04 0.05 0.07 0.09 0.12 0.16 0.18 0.19 0.19 0.17 0.16 0.16 0.16 0.16 0.16 0.15 0.14 0.13 0.13 0.11 0.11 0.11 0.11 0.12 0.12 0.11 0.10 0.08 0.07 0.05 0.04 0.04 0.03 0.02 0.02 0.01
0.00 0.00 0.00 0.00 0.01 0.01 0.01 0.01 0.01 0.02 0.03 0.05 0.07 0.10 0.13 0.14 0.15 0.16 0.15 0.14 0.13 0.13 0.12 0.12 0.12 0.14 0.14 0.14 0.13 0.11 0.11 0.11 0.10 0.09 0.07 0.06 0.05 0.04 0.03 0.02 0.02 0.01 0.01
0.00 0.00 0.00 0.00 0.00 0.00 0.00 0.00 0.00 0.00 0.01 0.02 0.03 0.05 0.07 0.09 0.11 0.11 0.12 0.12 0.12 0.11 0.10 0.10 0.12 0.13 0.13 0.13 0.13 0.12 0.12 0.11 0.10 0.08 0.06 0.05 0.04 0.03 0.03 0.02 0.02 0.01 0.01
0.00 0.00 0.00 0.00 0.00 0.00 0.00 0.00 0.00 0.00 0.00 0.01 0.01 0.02 0.03 0.05 0.08 0.10 0.11 0.10 0.10 0.10 0.09 0.09 0.09 0.11 0.13 0.11 0.12 0.12 0.10 0.10 0.08 0.07 0.06 0.04 0.03 0.03 0.03 0.02 0.02 0.01 0.01
0.00 0.00 0.00 0.00 0.00 0.00 0.00 0.00 0.00 0.00 0.00 0.00 0.00 0.01 0.01 0.02 0.04 0.06 0.08 0.09 0.09 0.09 0.08 0.08 0.07 0.08 0.09 0.10 0.10 0.10 0.09 0.08 0.07 0.06 0.04 0.03 0.03 0.03 0.02 0.02 0.02 0.01 0.01
0.00 0.00 0.00 0.00 0.00 0.00 0.00 0.00 0.00 0.00 0.00 0.00 0.00 0.00 0.00 0.01 0.02 0.03 0.05 0.06 0.07 0.07 0.08 0.08 0.07 0.07 0.08 0.08 0.07 0.08 0.08 0.08 0.07 0.07 0.06 0.05 0.04 0.04 0.03 0.03 0.02 0.02 0.01
0.00 0.00 0.00 0.00 0.00 0.00 0.00 0.00 0.00 0.00 0.00 0.00 0.00 0.00 0.00 0.00 0.01 0.01 0.02 0.03 0.05 0.06 0.06 0.06 0.08 0.07 0.08 0.09 0.06 0.06 0.06 0.06 0.06 0.06 0.06 0.06 0.05 0.04 0.04 0.03 0.02 0.02 0.01
0.00 0.00 0.00 0.00 0.00 0.00 0.00 0.00 0.00 0.00 0.00 0.00 0.00 0.00 0.00 0.00 0.00 0.01 0.01 0.01 0.02 0.04 0.05 0.06 0.07 0.08 0.08 0.08 0.08 0.07 0.05 0.05 0.06 0.06 0.06 0.06 0.06 0.06 0.05 0.03 0.02 0.01 0.01
0.00 0.00 0.00 0.00 0.00 0.00 0.00 0.00 0.00 0.00 0.00 0.00 0.00 0.00 0.00 0.00 0.00 0.01 0.01 0.02 0.03 0.03 0.04 0.05 0.06 0.09 0.10 0.09 0.09 0.08 0.08 0.08 0.06 0.06 0.06 0.06 0.05 0.05 0.04 0.03 0.03 0.02 0.01
0.00 0.00 0.00 0.00 0.00 0.00 0.00 0.00 0.00 0.00 0.00 0.00 0.00 0.00 0.00 0.00 0.01 0.01 0.02 0.02 0.02 0.02 0.03 0.06 0.08 0.10 0.10 0.09 0.09 0.09 0.09 0.08 0.06 0.06 0.05 0.04 0.03 0.04 0.04 0.04 0.04 0.03 0.02
0.00 0.00 0.00 0.00 0.00 0.00 0.00 0.00 0.00 0.00 0.00 0.00 0.00 0.00 0.00 0.00 0.00 0.01 0.02 0.02 0.03 0.03 0.03 0.04 0.06 0.08 0.09 0.09 0.09 0.08 0.07 0.07 0.07 0.06 0.05 0.05 0.05 0.06 0.06 0.06 0.05 0.04 0.03
0.00 0.00 0.00 0.00 0.00 0.00 0.00 0.00 0.00 0.00 0.00 0.00 0.00 0.01 0.01 0.00 0.00 0.01 0.02 0.02 0.03 0.03 0.05 0.05 0.06 0.06 0.07 0.07 0.07 0.07 0.07 0.08 0.08 0.08 0.07 0.07 0.07 0.07 0.07 0.06 0.05 0.04 0.03
0.00 0.00 0.00 0.00 0.00 0.00 0.00 0.00 0.00 0.00 0.00 0.00 0.00 0.01 0.01 0.01 0.01 0.01 0.02 0.03 0.03 0.04 0.05 0.05 0.05 0.05 0.05 0.05 0.05 0.06 0.07 0.08 0.08 0.08 0.08 0.08 0.08 0.08 0.08 0.07 0.06 0.04 0.03
0.00 0.00 0.00 0.00 0.00 0.00 0.00 0.00 0.00 0.00 0.00 0.00 0.00 0.00 0.01 0.01 0.01 0.01 0.02 0.02 0.03 0.03 0.04 0.03 0.03 0.03 0.04 0.04 0.04 0.05 0.06 0.07 0.08 0.09 0.10 0.10 0.10 0.09 0.09 0.08 0.07 0.05 0.04
0.00 0.00 0.00 0.00 0.00 0.00 0.00 0.01 0.01 0.01 0.00 0.00 0.00 0.00 0.00 0.01 0.01 0.01 0.02 0.03 0.03 0.02 0.02 0.02 0.02 0.02 0.03 0.04 0.05 0.06 0.07 0.08 0.10 0.10 0.10 0.11 0.11 0.10 0.10 0.08 0.06 0.05 0.04
0.00 0.00 0.00 0.00 0.00 0.01 0.01 0.01 0.01 0.01 0.01 0.00 0.00 0.00 0.00 0.00 0.01 0.01 0.02 0.03 0.03 0.02 0.02 0.02 0.02 0.03 0.04 0.05 0.06 0.07 0.08 0.10 0.10 0.10 0.10 0.10 0.09 0.10 0.09 0.07 0.06 0.06 0.05
0.00 0.00 0.00 0.01 0.01 0.01 0.01 0.01 0.01 0.01 0.01 0.01 0.01 0.00 0.01 0.01 0.01 0.01 0.01 0.02 0.02 0.02 0.02 0.02 0.02 0.03 0.04 0.05 0.06 0.07 0.09 0.10 0.10 0.10 0.09 0.09 0.09 0.09 0.08 0.07 0.06 0.06 0.05
0.00 0.00 0.00 0.00 0.00 0.01 0.01 0.01 0.02 0.02 0.01 0.01 0.01 0.01 0.02 0.03 0.02 0.02 0.02 0.02 0.03 0.03 0.03 0.03 0.03 0.03 0.04 0.05 0.06 0.08 0.09 0.09 0.08 0.08 0.08 0.08 0.09 0.08 0.07 0.07 0.07 0.06 0.04
0.00 0.00 0.00 0.00 0.01 0.01 0.01 0.01 0.02 0.02 0.01 0.01 0.01 0.01 0.01 0.02 0.02 0.02 0.03 0.03 0.03 0.03 0.04 0.04 0.03 0.03 0.04 0.05 0.06 0.07 0.09 0.09 0.08 0.08 0.08 0.09 0.09 0.09 0.08 0.08 0.07 0.06 0.05
0.01 0.01 0.00 0.00 0.00 0.01 0.01 0.01 0.01 0.01 0.01 0.01 0.01 0.01 0.01 0.02 0.02 0.03 0.03 0.03 0.03 0.03 0.03 0.04 0.04 0.04 0.04 0.04 0.05 0.06 0.07 0.07 0.07 0.08 0.09 0.09 0.09 0.08 0.07 0.06 0.06 0.05 0.04
0.01 0.00 0.00 0.00 0.00 0.01 0.01 0.01 0.01 0.01 0.01 0.01 0.02 0.02 0.02 0.02 0.03 0.03 0.03 0.03 0.03 0.03 0.03 0.04 0.04 0.04 0.04 0.04 0.05 0.05 0.06 0.07 0.08 0.10 0.10 0.09 0.08 0.08 0.07 0.06 0.05 0.04 0.04
0.00 0.00 0.00 0.00 0.01 0.01 0.01 0.01 0.01 0.01 0.01 0.01 0.02 0.02 0.02 0.02 0.03 0.03 0.04 0.04 0.04 0.04 0.04 0.04 0.04 0.05 0.04 0.04 0.05 0.05 0.06 0.07 0.08 0.09 0.09 0.09 0.09 0.07 0.06 0.06 0.05 0.05 0.04
0.00 0.00 0.00 0.01 0.01 0.01 0.01 0.01 0.01 0.01 0.01 0.01 0.02 0.02 0.03 0.03 0.03 0.03 0.04 0.05 0.05 0.05 0.05 0.05 0.05 0.05 0.05 0.05 0.05 0.06 0.06 0.07 0.07 0.08 0.08 0.08 0.08 0.07 0.06 0.06 0.06 0.05 0.05
MSLP
1017.84 1017.51 1017.20 1016.92 1016.67 1016.44 1016.24 1016.06 1015.87 1015.65 1015.39 1015.08 1014.70 1014.27 1013.79 1013.29 1012.78 1012.28 1011.81 1011.39 1011.02 1010.69 1010.41 1010.17 1009.98 1009.84 1009.75 1009.72 1009.77 1009.90 1010.10 1010.38 1010.72 1011.10 1011.51 1011.93 1012.35 1012.75 1013.15 1013.53 1013.91 1014.29 1014.67
1018.68 1018.36 1018.07 1017.81 1017.58 1017.38 1017.20 1017.03 1016.85 1016.63 1016.37 1016.04 1015.65 1015.19 1014.69 1014.15 1013.59 1013.03 1012.49 1011.97 1011.48 1011.02 1010.59 1010.20 1009.85 1009.55 1009.32 1009.18 1009.14 1009.21 1009.39 1009.67 1010.04 1010.48 1010.96 1011.46 1011.97 1012.47 1012.95 1013.42 1013.87 1014.31 1014.74
1019.30 1019.00 1018.72 1018.47 1018.26 1018.08 1017.91 1017.74 1017.55 1017.33 1017.06 1016.73 1016.33 1015.87 1015.37 1014.82 1014.26 1013.69 1013.11 1012.55 1011.99 1011.43 1010.89 1010.37 1009.88 1009.43 1009.06 1008.79 1008.64 1008.62 1008.74 1008.98 1009.34 1009.79 1010.31 1010.88 1011.46 1012.04 1012.61 1013.16 1013.70 1014.21 1014.69
1019.74 1019.45 1019.19 1018.95 1018.75 1018.56 1018.39 1018.21 1018.01 1017.78 1017.49 1017.15 1016.75 1016.29 1015.80 1015.27 1014.73 1014.17 1013.60 1013.03 1012.44 1011.84 1011.23 1010.61 1010.01 1009.45 1008.95 1008.55 1008.27 1008.14 1008.15 1008.33 1008.64 1009.07 1009.59 1010.18 1010.81 1011.46 1012.11 1012.75 1013.37 1013.96 1014.51
1020.06 1019.79 1019.54 1019.31 1019.10 1018.90 1018.71 1018.51 1018.28 1018.01 1017.70 1017.34 1016.93 1016.47 1015.99 1015.49 1014.97 1014.45 1013.91 1013.36 1012.78 1012.17 1011.53 1010.86 1010.18 1009.53 1008.92 1008.40 1008.00 1007.74 1007.65 1007.72 1007.95 1008.33 1008.83 1009.42 1010.07 1010.77 1011.48 1012.19 1012.89 1013.56 1014.18
1020.33 1020.08 1019.84 1019.60 1019.38 1019.16 1018.94 1018.70 1018.43 1018.12 1017.77 1017.37 1016.94 1016.47 1015.99 1015.51 1015.02 1014.52 1014.02 1013.50 1012.95 1012.36 1011.72 1011.03 1010.32 1009.60 1008.92 1008.30 1007.79 1007.43 1007.22 1007.18 1007.32 1007.62 1008.07 1008.64 1009.30 1010.02 1010.78 1011.55 1012.32 1013.06 1013.75
1020.58 1020.35 1020.11 1019.87 1019.63 1019.39 1019.12 1018.83 1018.52 1018.16 1017.75 1017.31 1016.84 1016.35 1015.86 1015.37 1014.88 1014.41 1013.94 1013.46 1012.94 1012.38 1011.76 1011.09 1010.37 1009.63 1008.90 1008.22 1007.62 1007.16 1006.85 1006.71 1006.76 1006.98 1007.37 1007.90 1008.55 1009.29 1010.08 1010.90 1011.71 1012.51 1013.26
1020.82 1020.60 1020.36 1020.11 1019.84 1019.56 1019.26 1018.93 1018.55 1018.14 1017.69 1017.19 1016.68 1016.15 1015.62 1015.11 1014.63 1014.16 1013.70 1013.24 1012.76 1012.23 1011.65 1011.00 1010.30 1009.56 1008.82 1008.10 1007.46 1006.92 1006.53 1006.31 1006.28 1006.43 1006.77 1007.26 1007.89 1008.63 1009.44 1010.29 1011.15 1011.98 1012.77
1021.01 1020.80 1020.55 1020.28 1019.98 1019.67 1019.32 1018.94 1018.53 1018.07 1017.56 1017.03 1016.47 1015.89 1015.33 1014.79 1014.28 1013.80 1013.35 1012.90 1012.43 1011.94 1011.39 1010.78 1010.11 1009.40 1008.66 1007.93 1007.27 1006.69 1006.25 1005.97 1005.88 1005.98 1006.27 1006.73 1007.35 1008.08 1008.91 1009.77 1010.66 1011.52 1012.33
1021.12 1020.89 1020.62 1020.32 1019.99 1019.64 1019.26 1018.85 1018.40 1017.90 1017.37 1016.80 1016.20 1015.59 1015.00 1014.43 1013.89 1013.38 1012.91 1012.47 1012.02 1011.54 1011.02 1010.45 1009.82 1009.13 1008.42 1007.71 1007.03 1006.44 1005.97 1005.66 1005.53 1005.59 1005.85 1006.30 1006.91 1007.64 1008.47 1009.36 1010.26 1011.14 1011.96
1021.11 1020.85 1020.55 1020.21 1019.84 1019.46 1019.05 1018.61 1018.14 1017.63 1017.08 1016.49 1015.87 1015.25 1014.62 1014.02 1013.46 1012.93 1012.44 1011.99 1011.54 1011.08 1010.59 1010.04 1009.44 1008.79 1008.11 1007.41 1006.75 1006.16 1005.68 1005.35 1005.20 1005.24 1005.49 1005.93 1006.54 1007.28 1008.12 1009.02 1009.93 1010.82 1011.65
1020.97 1020.66 1020.31 1019.93 1019.53 1019.11 1018.68 1018.24 1017.76 1017.25 1016.69 1016.11 1015.48 1014.85 1014.21 1013.59 1013.00 1012.46 1011.96 1011.49 1011.04 1010.59 1010.11 1009.59 1009.02 1008.40 1007.74 1007.07 1006.42 1005.83 1005.35 1005.02 1004.86 1004.89 1005.14 1005.58 1006.20 1006.95 1007.81 1008.72 1009.65 1010.54 1011.37
1020.70 1020.34 1019.94 1019.52 1019.09 1018.65 1018.21 1017.76 1017.28 1016.78 1016.23 1015.65 1015.03 1014.40 1013.76 1013.13 1012.53 1011.98 1011.46 1010.99 1010.54 1010.09 1009.62 1009.12 1008.58 1007.98 1007.34 1006.68 1006.05 1005.47 1004.99 1004.65 1004.49 1004.52 1004.77 1005.22 1005.85 1006.62 1007.50 1008.43 1009.36 1010.27 1011.10
1020.35 1019.94 1019.51 1019.05 1018.60 1018.15 1017.70 1017.24 1016.77 1016.27 1015.73 1015.16 1014.55 1013.91 1013.27 1012.64 1012.04 1011.48 1010.96 1010.49 1010.04 1009.60 1009.15 1008.66 1008.13 1007.55 1006.93 1006.28 1005.66 1005.08 1004.60 1004.26 1004.09 1004.13 1004.38 1004.83 1005.47 1006.25 1007.14 1008.09 1009.04 1009.96 1010.81
1019.95 1019.52 1019.06 1018.59 1018.13 1017.67 1017.22 1016.76 1016.29 1015.78 1015.24 1014.66 1014.04 1013.40 1012.76 1012.13 1011.53 1010.97 1010.46 1009.99 1009.55 1009.13 1008.69 1008.22 1007.71 1007.14 1006.53 1005.90 1005.27 1004.69 1004.21 1003.86 1003.69 1003.71 1003.96 1004.41 1005.05 1005.84 1006.74 1007.70 1008.67 1009.60 1010.46
1019.55 1019.12 1018.67 1018.21 1017.75 1017.30 1016.84 1016.37 1015.88 1015.36 1014.79 1014.18 1013.55 1012.89 1012.23 1011.59 1010.99 1010.44 1009.95 1009.49 1009.08 1008.67 1008.26 1007.81 1007.32 1006.77 1006.17 1005.54 1004.91 1004.33 1003.84 1003.48 1003.29 1003.31 1003.54 1003.98 1004.61 1005.39 1006.29 1007.25 1008.23 1009.18 1010.05
1019.18 1018.78 1018.36 1017.93 1017.49 1017.05 1016.58 1016.09 1015.57 1015.00 1014.39 1013.75 1013.07 1012.38 1011.70 1011.06 1010.46 1009.92 1009.44 1009.01 1008.63 1008.25 1007.87 1007.45 1006.97 1006.44 1005.86 1005.23 1004.61 1004.02 1003.51 1003.14 1002.93 1002.92 1003.13 1003.54 1004.15 1004.92 1005.80 1006.76 1007.74 1008.69 1009.59
1018.85 1018.50 1018.13 1017.74 1017.33 1016.89 1016.42 1015.90 1015.33 1014.71 1014.05 1013.34 1012.61 1011.89 1011.19 1010.53 1009.94 1009.41 1008.96 1008.56 1008.21 1007.87 1007.52 1007.13 1006.68 1006.16 1005.59 1004.97 1004.34 1003.75 1003.23 1002.84 1002.61 1002.57 1002.74 1003.12 1003.70 1004.44 1005.30 1006.23 1007.20 1008.16 1009.07
1018.53 1018.25 1017.95 1017.60 1017.22 1016.79 1016.30 1015.75 1015.13 1014.45 1013.72 1012.96 1012.18 1011.42 1010.70 1010.04 1009.46 1008.95 1008.53 1008.17 1007.85 1007.55 1007.22 1006.85 1006.42 1005.91 1005.35 1004.73 1004.10 1003.50 1002.97 1002.56 1002.30 1002.24 1002.37 1002.72 1003.25 1003.95 1004.78 1005.69 1006.64 1007.59 1008.51
1018.23 1018.02 1017.77 1017.47 1017.11 1016.68 1016.17 1015.58 1014.91 1014.18 1013.39 1012.58 1011.77 1010.99 1010.26 1009.61 1009.05 1008.57 1008.18 1007.85 1007.56 1007.27 1006.96 1006.60 1006.17 1005.66 1005.09 1004.47 1003.84 1003.23 1002.69 1002.26 1001.99 1001.89 1002.00 1002.31 1002.81 1003.47 1004.26 1005.14 1006.07 1007.01 1007.94
1017.93 1017.77 1017.56 1017.29 1016.94 1016.51 1015.98 1015.35 1014.65 1013.87 1013.06 1012.22 1011.39 1010.61 1009.90 1009.27 1008.73 1008.29 1007.92 1007.61 1007.33 1007.04 1006.72 1006.34 1005.89 1005.37 1004.78 1004.14 1003.49 1002.87 1002.33 1001.90 1001.61 1001.51 1001.60 1001.89 1002.36 1002.99 1003.74 1004.60 1005.51 1006.44 1007.38
1017.63 1017.49 1017.30 1017.04 1016.69 1016.25 1015.70 1015.06 1014.33 1013.54 1012.71 1011.88 1011.07 1010.31 1009.63 1009.03 1008.53 1008.11 1007.75 1007.44 1007.14 1006.83 1006.47 1006.05 1005.55 1004.98 1004.35 1003.69 1003.02 1002.40 1001.85 1001.43 1001.16 1001.06 1001.15 1001.43 1001.89 1002.51 1003.25 1004.08 1004.97 1005.90 1006.83
1017.32 1017.19 1017.00 1016.73 1016.37 1015.91 1015.35 1014.70 1013.97 1013.19 1012.39 1011.59 1010.82 1010.11 1009.47 1008.91 1008.43 1008.02 1007.66 1007.32 1006.97 1006.59 1006.16 1005.66 1005.09 1004.46 1003.77 1003.07 1002.39 1001.77 1001.24 1000.84 1000.60 1000.53 1000.65 1000.96 1001.43 1002.05 1002.78 1003.61 1004.49 1005.41 1006.33
1017.03 1016.88 1016.67 1016.38 1016.00 1015.53 1014.97 1014.33 1013.62 1012.87 1012.11 1011.36 1010.65 1009.99 1009.39 1008.87 1008.40 1007.98 1007.59 1007.19 1006.76 1006.29 1005.76 1005.16 1004.49 1003.78 1003.04 1002.30 1001.61 1001.00 1000.50 1000.15 999.96 999.95 1000.13 1000.48 1000.99 1001.63 1002.38 1003.20 1004.08 1004.98 1005.89
1016.75 1016.57 1016.34 1016.03 1015.64 1015.16 1014.61 1013.99 1013.31 1012.61 1011.90 1011.21 1010.56 1009.95 1009.39 1008.88 1008.40 1007.95 1007.49 1007.00 1006.47 1005.89 1005.24 1004.52 1003.76 1002.96 1002.17 1001.41 1000.72 1000.14 999.70 999.41 999.30 999.37 999.62 1000.03 1000.59 1001.27 1002.04 1002.87 1003.74 1004.62 1005.51
1016.49 1016.29 1016.03 1015.71 1015.31 1014.84 1014.30 1013.71 1013.08 1012.42 1011.77 1011.13 1010.52 1009.94 1009.40 1008.88 1008.37 1007.85 1007.31 1006.72 1006.08 1005.37 1004.59 1003.77 1002.92 1002.06 1001.23 1000.47 999.81 999.28 998.90 998.70 998.68 998.84 999.17 999.66 1000.28 1000.99 1001.78 1002.61 1003.47 1004.33 1005.17
Thickness
5529 5533 5536 5539 5543 5547 5550 5552 5555 5559 5564 5567 5571 5573 5575 5577 5578 5577 5577 5576 5576 5576 5576 5576 5576 5576 5576 5574 5574 5574 5574 5574 5573 5567 5563 5561 5559 5558 5556 5554 5551 5549 5547
5521 5524 5527 5530 5533 5536 5538 5541 5544 5547 5550 5553 5557 5560 5562 5564 5565 5566 5565 5565 5564 5565 5565 5566 5566 5566 5565 5565 5564 5565 5565 5564 5563 5559 5553 5550 5549 5548 5546 5543 5540 5538 5536
5514 5516 5518 5520 5523 5525 5526 5528 5531 5534 5537 5539 5542 5544 5546 5548 5551 5552 5552 5553 5553 5553 5554 5555 5555 5554 5554 5554 5554 5554 5554 5553 5552 5550 5547 5542 5539 5536 5534 5531 5528 5526 5525
5506 5508 5509 5510 5511 5513 5515 5517 5519 5521 5523 5525 5526 5528 5530 5532 5534 5536 5538 5539 5540 5541 5542 5542 5543 5543 5543 5543 5543 5543 5541 5541 5540 5538 5536 5532 5528 5526 5524 5521 5517 5515 5514
5498 5499 5499 5499 5500 5501 5503 5504 5505 5507 5508 5509 5511 5512 5514 5516 5519 5520 5522 5524 5526 5527 5527 5528 5528 5529 5530 5530 5530 5531 5529 5529 5527 5526 5524 5521 5518 5516 5516 5513 5510 5505 5502
5489 5489 5490 5490 5491 5491 5491 5492 5492 5493 5494 5495 5495 5496 5498 5500 5502 5504 5505 5507 5508 5510 5511 5512 5512 5513 5513 5514 5516 5517 5517 5517 5516 5515 5514 5513 5513 5510 5506 5502 5498 5494 5493
5481 5480 5480 5480 5480 5479 5479 5479 5479 5479 5479 5479 5479 5480 5481 5482 5484 5485 5487 5487 5488 5489 5491 5492 5494 5496 5496 5497 5498 5499 5501 5502 5503 5503 5504 5504 5502 5500 5495 5491 5490 5488 5487
5472 5471 5470 5469 5468 5468 5467 5466 5464 5464 5463 5462 5462 5461 5461 5463 5464 5465 5466 5467 5468 5469 5470 5472 5475 5477 5477 5478 5479 5480 5482 5484 5486 5487 5490 5491 5490 5489 5487 5486 5482 5476 5472
5462 5460 5458 5456 5455 5453 5452 5450 5448 5446 5445 5443 5443 5442 5441 5441 5442 5443 5445 5445 5446 5448 5449 5451 5452 5455 5457 5458 5459 5460 5462 5464 5466 5469 5471 5473 5474 5474 5472 5469 5465 5464 5462
5451 5449 5446 5443 5441 5438 5435 5433 5430 5428 5426 5424 5422 5420 5418 5417 5418 5419 5420 5421 5423 5425 5427 5428 5430 5431 5434 5435 5436 5438 5441 5444 5445 5449 5451 5454 5456 5457 5458 5458 5458 5455 5452
5440 5437 5434 5431 5427 5423 5419 5415 5411 5408 5405 5402 5400 5399 5396 5395 5395 5394 5394 5394 5396 5399 5402 5404 5405 5406 5409 5411 5412 5415 5420 5422 5424 5428 5431 5434 5437 5440 5442 5444 5446 5447 5445
5430 5427 5423 5418 5413 5409 5403 5398 5393 5388 5384 5381 5378 5377 5375 5373 5371 5371 5371 5371 5372 5374 5376 5378 5379 5381 5383 5386 5389 5393 5396 5399 5402 5407 5411 5415 5420 5423 5425 5427 5430 5432 5435
5419 5414 5410 5405 5398 5392 5386 5380 5375 5368 5363 5360 5358 5357 5356 5352 5349 5348 5348 5348 5348 5349 5351 5353 5355 5358 5360 5363 5367 5370 5374 5377 5381 5387 5394 5399 5404 5407 5407 5409 5411 5414 5417
5407 5401 5396 5390 5384 5376 5369 5363 5356 5350 5344 5341 5338 5337 5335 5332 5328 5326 5325 5325 5326 5326 5327 5330 5333 5336 5338 5341 5345 5349 5352 5357 5363 5370 5377 5381 5384 5388 5391 5395 5398 5400 5401
5395 5389 5383 5376 5368 5361 5354 5345 5339 5333 5325 5323 5321 5317 5315 5315 5312 5309 5307 5307 5306 5306 5308 5310 5312 5314 5316 5320 5324 5329 5333 5339 5345 5352 5359 5364 5369 5373 5377 5381 5386 5389 5391
5383 5376 5369 5362 5354 5346 5339 5333 5325 5318 5313 5308 5304 5301 5299 5297 5296 5293 5291 5291 5290 5290 5291 5293 5295 5296 5299 5303 5308 5313 5318 5324 5331 5337 5344 5351 5356 5361 5365 5368 5374 5379 5382
5368 5361 5354 5347 5338 5330 5323 5317 5313 5308 5299 5293 5289 5285 5283 5281 5279 5278 5276 5276 5276 5275 5275 5277 5279 5282 5285 5289 5294 5300 5306 5311 5317 5324 5331 5338 5344 5350 5354 5359 5363 5367 5370
5354 5347 5339 5330 5322 5314 5306 5300 5294 5290 5287 5282 5276 5271 5269 5267 5265 5263 5262 5262 5262 5261 5260 5263 5266 5269 5273 5278 5283 5289 5294 5300 5306 5313 5320 5328 5334 5340 5346 5351 5355 5359 5361
5341 5333 5325 5316 5308 5300 5293 5286 5280 5275 5271 5268 5265 5260 5256 5254 5252 5250 5249 5248 5248 5250 5250 5252 5255 5259 5264 5268 5274 5280 5286 5292 5298 5304 5311 5318 5326 5332 5338 5343 5348 5352 5353
5328 5320 5312 5304 5296 5288 5281 5274 5269 5264 5259 5255 5252 5248 5244 5242 5240 5239 5237 5237 5238 5241 5242 5245 5248 5251 5255 5260 5266 5273 5279 5285 5291 5297 5303 5310 5318 5324 5331 5336 5341 5345 5348
5315 5307 5300 5292 5284 5277 5270 5264 5259 5254 5249 5245 5241 5237 5235 5232 5230 5229 5228 5229 5231 5233 5236 5239 5242 5245 5250 5255 5260 5266 5273 5279 5286 5292 5298 5304 5311 5318 5324 5330 5334 5338 5340
5304 5296 5288 5281 5274 5267 5261 5255 5249 5244 5240 5237 5233 5230 5227 5224 5222 5221 5221 5222 5224 5226 5229 5233 5237 5241 5245 5250 5256 5262 5268 5274 5280 5287 5293 5299 5306 5312 5318 5323 5327 5331 5333
5293 5285 5278 5271 5264 5258 5252 5246 5241 5236 5232 5228 5225 5223 5220 5218 5216 5215 5216 5217 5218 5221 5224 5228 5233 5237 5242 5246 5252 5258 5264 5271 5277 5283 5289 5295 5302 5308 5312 5318 5322 5326 5329
5284 5276 5268 5261 5255 5249 5243 5238 5233 5229 5225 5222 5219 5216 5214 5212 5210 5210 5211 5212 5214 5217 5221 5225 5230 5235 5239 5244 5250 5256 5262 5268 5274 5281 5287 5293 5299 5304 5308 5313 5318 5322 5325
5275 5267 5259 5253 5246 5241 5235 5231 5226 5222 5219 5215 5213 5211 5208 5207 5206 5206 5207 5209 5211 5215 5219 5223 5229 5234 5239 5244 5249 5255 5261 5267 5273 5280 5285 5291 5297 5301 5306 5310 5314 5318 5321
5266 5259 5251 5245 5239 5234 5229 5225 5221 5217 5213 5210 5207 5205 5204 5204 5204 5204 5205 5208 5211 5215 5219 5224 5230 5235 5240 5245 5251 5257 5262 5268 5274 5280 5286 5291 5296 5300 5303 5307 5311 5315 5317